Location: Newark
(43.6583°N, 1.6617°E)
Time: 13:57:02
(UTC+00:00)

Tiros 1 - Pass Details

Date: 27 August 2019
Orbit: 630 x 664 km, 48.4° (Epoch: 21 September)

Event Time Altitude Azimuth Distance (km) Brightness Sun altitude
Rises 22:26:25 0° 244° (WSW) 2,909 - -32.8°
Reaches altitude 10° 22:28:43 10° 244° (WSW) 2,003 - -33.0°
Maximum altitude 22:33:20 90° 161° (SSE) 635 - -33.3°
Drops below altitude 10° 22:37:59 10° 66° (ENE) 2,015 - -33.7°
Sets 22:40:19 0° 66° (ENE) 2,929 - -33.8°
